| time (UTC) | temp F | wind direction | speed MPH | gust MPH | rain 1hr in | rain 24hr in | rain mn in | humidity % | barometer mb |
| 20260901163237 | 79 | 94 | 2.0 | 6.0 | 0.00 | 0.00 | 0.00 | 40 | 1017.2 |
| 20260901162836 | 80 | 145 | 3.0 | 4.0 | 0.00 | 0.00 | 0.00 | 41 | 1017.2 |
| 20260901162434 | 80 | 184 | 5.0 | 6.0 | 0.00 | 0.00 | 0.00 | 42 | 1017.2 |
| 20260901162033 | 79 | 70 | 1.0 | 3.0 | 0.00 | 0.00 | 0.00 | 43 | 1017.2 |
| 20260901161632 | 78 | 165 | 3.0 | 3.0 | 0.00 | 0.00 | 0.00 | 43 | 1017.2 |
| 20260901161231 | 77 | 123 | 3.0 | 6.0 | 0.00 | 0.00 | 0.00 | 43 | 1017.3 |
| 20260901160830 | 78 | 189 | 2.0 | 6.0 | 0.00 | 0.00 | 0.00 | 43 | 1017.3 |
| 20260901160027 | 76 | 157 | 1.0 | 6.0 | 0.00 | 0.00 | 0.00 | 44 | 1017.3 |
| 20260901155626 | 76 | 180 | 3.0 | 5.0 | 0.00 | 0.00 | 0.00 | 45 | 1017.3 |
| 20260901155224 | 76 | 194 | 1.0 | 2.0 | 0.00 | 0.00 | 0.00 | 46 | 1017.3 |
| 20260901154823 | 76 | 198 | 3.0 | 3.0 | 0.00 | 0.00 | 0.00 | 48 | 1017.2 |
| 20260901154422 | 76 | 56 | 2.0 | 5.0 | 0.00 | 0.00 | 0.00 | 48 | 1017.4 |
| 20260901154020 | 76 | 42 | 2.0 | 5.0 | 0.00 | 0.00 | 0.00 | 50 | 1017.3 |
| 20260901153218 | 73 | 85 | 1.0 | 2.0 | 0.00 | 0.00 | 0.00 | 47 | 1017.2 |
| 20260901152819 | 73 | 67 | 1.0 | 2.0 | 0.00 | 0.00 | 0.00 | 47 | 1017.1 |
| 20260901152416 | 73 | 119 | 0.0 | 0.0 | 0.00 | 0.00 | 0.00 | 48 | 1017.1 |
| 20260901152015 | 72 | 182 | 0.0 | 2.0 | 0.00 | 0.00 | 0.00 | 48 | 1017.1 |
| 20260901151613 | 71 | 229 | 2.0 | 2.0 | 0.00 | 0.00 | 0.00 | 49 | 1017.1 |
| 20260901150409 | 67 | 135 | 1.0 | 1.0 | 0.00 | 0.00 | 0.00 | 50 | 1016.9 |
| 20260901145607 | 66 | 297 | 0.0 | 1.0 | 0.00 | 0.00 | 0.00 | 50 | 1016.8 |
| 20260901144804 | 65 | 22 | 1.0 | 2.0 | 0.00 | 0.00 | 0.00 | 51 | 1016.7 |
| 20260901144403 | 64 | 310 | 1.0 | 1.0 | 0.00 | 0.00 | 0.00 | 51 | 1016.6 |
| 20260901144001 | 64 | 328 | 0.0 | 1.0 | 0.00 | 0.00 | 0.00 | 51 | 1016.6 |
| 20260901143601 | 63 | 333 | 1.0 | 1.0 | 0.00 | 0.00 | 0.00 | 51 | 1016.5 |
| 20260901143159 | 62 | 42 | 0.0 | 1.0 | 0.00 | 0.00 | 0.00 | 51 | 1016.5 |
| 20260901141955 | 60 | 42 | 0.0 | 0.0 | 0.00 | 0.00 | 0.00 | 52 | 1016.3 |
| 20260901141553 | 59 | 45 | 0.0 | 0.0 | 0.00 | 0.00 | 0.00 | 52 | 1016.4 |
| 20260901141152 | 58 | 42 | 0.0 | 1.0 | 0.00 | 0.00 | 0.00 | 52 | 1016.3 |
| 20260901140752 | 58 | 78 | 0.0 | 0.0 | 0.00 | 0.00 | 0.00 | 52 | 1016.2 |
| 20260901135949 | 57 | 184 | 0.0 | 0.0 | 0.00 | 0.00 | 0.00 | 52 | 1016.2 |
| 20260901135146 | 57 | 189 | 0.0 | 0.0 | 0.00 | 0.00 | 0.00 | 52 | 1016.2 |
| 20260901133942 | 56 | 270 | 0.0 | 0.0 | 0.00 | 0.00 | 0.00 | 52 | 1016.0 |
| 20260901133542 | 56 | 279 | 0.0 | 0.0 | 0.00 | 0.00 | 0.00 | 52 | 1016.0 |
| 20260901132741 | 56 | 279 | 0.0 | 0.0 | 0.00 | 0.00 | 0.00 | 52 | 1016.1 |
| 20260901131936 | 56 | 308 | 0.0 | 0.0 | 0.00 | 0.00 | 0.00 | 52 | 1016.0 |
| 20260901131534 | 56 | 328 | 0.0 | 0.0 | 0.00 | 0.00 | 0.00 | 51 | 1016.0 |
| 20260901131133 | 56 | 292 | 0.0 | 1.0 | 0.00 | 0.00 | 0.00 | 52 | 1016.0 |
| 20260901130731 | 57 | 317 | 0.0 | 0.0 | 0.00 | 0.00 | 0.00 | 51 | 1016.1 |
| 20260901125929 | 57 | 294 | 0.0 | 1.0 | 0.00 | 0.00 | 0.00 | 51 | 1016.0 |
| 20260901125529 | 57 | 81 | 0.0 | 1.0 | 0.00 | 0.00 | 0.00 | 51 | 1016.0 |
| 20260901124725 | 57 | 288 | 1.0 | 1.0 | 0.00 | 0.00 | 0.00 | 51 | 1016.1 |
| 20260901124324 | 56 | 283 | 0.0 | 0.0 | 0.00 | 0.00 | 0.00 | 51 | 1016.0 |
| 20260901123522 | 56 | 330 | 0.0 | 1.0 | 0.00 | 0.00 | 0.00 | 51 | 1015.9 |
| 20260901123121 | 57 | 330 | 0.0 | 0.0 | 0.00 | 0.00 | 0.00 | 51 | 1015.9 |
| 20260901122317 | 57 | 279 | 0.0 | 0.0 | 0.00 | 0.00 | 0.00 | 51 | 1016.0 |
| 20260901121916 | 57 | 274 | 0.0 | 0.0 | 0.00 | 0.00 | 0.00 | 51 | 1015.9 |
| 20260901121515 | 57 | 301 | 0.0 | 1.0 | 0.00 | 0.00 | 0.00 | 51 | 1015.9 |
| 20260901121114 | 57 | 205 | 0.0 | 1.0 | 0.00 | 0.00 | 0.00 | 51 | 1015.9 |
| 20260901120712 | 57 | 186 | 0.0 | 0.0 | 0.00 | 0.00 | 0.00 | 51 | 1015.9 |
| 20260901120311 | 57 | 236 | 0.0 | 0.0 | 0.00 | 0.00 | 0.00 | 51 | 1015.9 |
| 20260901115107 | 58 | 283 | 1.0 | 1.0 | 0.00 | 0.00 | 0.00 | 51 | 1015.9 |
| 20260901114707 | 58 | 288 | 1.0 | 1.0 | 0.00 | 0.00 | 0.00 | 51 | 1015.9 |
| 20260901114305 | 58 | 279 | 1.0 | 1.0 | 0.00 | 0.00 | 0.00 | 51 | 1015.9 |
| 20260901113903 | 58 | 283 | 0.0 | 1.0 | 0.00 | 0.00 | 0.00 | 51 | 1015.9 |
| 20260901113101 | 58 | 301 | 1.0 | 1.0 | 0.00 | 0.00 | 0.00 | 51 | 1016.0 |
| 20260901112700 | 58 | 294 | 0.0 | 0.0 | 0.00 | 0.00 | 0.00 | 50 | 1015.9 |
| 20260901112259 | 58 | 279 | 0.0 | 0.0 | 0.00 | 0.00 | 0.00 | 50 | 1015.9 |
| 20260901110653 | 58 | 330 | 0.0 | 0.0 | 0.00 | 0.00 | 0.00 | 50 | 1015.9 |
| 20260901110253 | 58 | 317 | 0.0 | 0.0 | 0.00 | 0.00 | 0.00 | 1015.8 | |
| 20260901105851 | 58 | 40 | 1.0 | 1.0 | 0.00 | 0.00 | 0.00 | 50 | 1015.9 |
| 20260901105450 | 58 | 326 | 0.0 | 0.0 | 0.00 | 0.00 | 0.00 | 50 | 1015.8 |
| 20260901104648 | 58 | 236 | 0.0 | 0.0 | 0.00 | 0.00 | 0.00 | 49 | |
| 20260901104245 | 58 | 189 | 0.0 | 0.0 | 0.00 | 0.00 | 0.00 | 49 | 1015.9 |
| 20260901103844 | 58 | 288 | 0.0 | 0.0 | 0.00 | 0.00 | 0.00 | 49 | 1015.9 |
| 20260901103443 | 58 | 157 | 0.0 | 0.0 | 0.00 | 0.00 | 0.00 | 49 | 1016.0 |
| 20260901103042 | 58 | 292 | 0.0 | 0.0 | 0.00 | 0.00 | 0.00 | 49 | 1015.9 |
| 20260901102640 | 58 | 346 | 0.0 | 1.0 | 0.00 | 0.00 | 0.00 | 49 | 1015.9 |
| 20260901102240 | 58 | 33 | 1.0 | 1.0 | 0.00 | 0.00 | 0.00 | 49 | 1015.9 |
| 20260901101838 | 58 | 38 | 0.0 | 1.0 | 0.00 | 0.00 | 0.00 | 49 | 1015.9 |
| 20260901100232 | 59 | 139 | 1.0 | 2.0 | 0.00 | 0.00 | 0.00 | 49 | 1016.1 |
| 20260901095833 | 59 | 137 | 1.0 | 1.0 | 0.00 | 0.00 | 0.00 | 49 | 1016.0 |
| 20260901095831 | 59 | 137 | 1.0 | 1.0 | 0.00 | 0.00 | 0.00 | 49 | 1016.0 |
| 20260901095430 | 59 | 150 | 1.0 | 2.0 | 0.00 | 0.00 | 0.00 | 49 | 1016.1 |
| 20260901095029 | 59 | 135 | 0.0 | 1.0 | 0.00 | 0.00 | 0.00 | 49 | 1016.1 |
| 20260901094226 | 58 | 250 | 0.0 | 0.0 | 0.00 | 0.00 | 0.00 | 49 | 1016.1 |
| 20260901093825 | 58 | 301 | 0.0 | 0.0 | 0.00 | 0.00 | 0.00 | 49 | 1016.1 |
| 20260901093424 | 58 | 292 | 0.0 | 0.0 | 0.00 | 0.00 | 0.00 | 49 | 1016.1 |
| 20260901093022 | 58 | 344 | 0.0 | 1.0 | 0.00 | 0.00 | 0.00 | 48 | 1016.0 |
| 20260901092621 | 59 | 353 | 0.0 | 0.0 | 0.00 | 0.00 | 0.00 | 48 | 1015.9 |
| 20260901092220 | 59 | 299 | 0.0 | 0.0 | 0.00 | 0.00 | 0.00 | 48 | 1015.9 |
| 20260901091819 | 59 | 317 | 0.0 | 1.0 | 0.00 | 0.00 | 0.00 | 48 | 1015.8 |
| 20260901091417 | 59 | 321 | 1.0 | 1.0 | 0.00 | 0.00 | 0.00 | 48 | 1015.8 |
| 20260901091016 | 59 | 306 | 0.0 | 0.0 | 0.00 | 0.00 | 0.00 | 48 | 1016.0 |
| 20260901090616 | 59 | 279 | 0.0 | 0.0 | 0.00 | 0.00 | 0.00 | 48 | 1016.0 |
| 20260901090214 | 60 | 283 | 0.0 | 0.0 | 0.00 | 0.00 | 0.00 | 48 | 1016.1 |
| 20260901085813 | 60 | 186 | 0.0 | 0.0 | 0.00 | 0.00 | 0.00 | 48 | 1016.0 |
| 20260901085009 | 60 | 301 | 0.0 | 0.0 | 0.00 | 0.00 | 0.00 | 48 | 1016.1 |
| 20260901084609 | 60 | 42 | 0.0 | 0.0 | 0.00 | 0.00 | 0.00 | 48 | 1016.1 |
| 20260901083848 | 60 | 45 | 0.0 | 0.0 | 0.00 | 0.00 | 0.00 | 47 | 1016.2 |
| 20260901083806 | 60 | 45 | 0.0 | 0.0 | 0.00 | 0.00 | 0.00 | 47 | 1016.2 |
| 20260901083447 | 60 | 33 | 0.0 | 0.0 | 0.00 | 0.00 | 0.00 | 47 | 1016.1 |
| 20260901083405 | 60 | 33 | 0.0 | 0.0 | 0.00 | 0.00 | 0.00 | 47 | 1016.1 |
| 20260901082200 | 60 | 317 | 1.0 | 2.0 | 0.00 | 0.00 | 0.00 | 47 | 1016.1 |
| 20260901081843 | 61 | 45 | 1.0 | 1.0 | 0.00 | 0.00 | 0.00 | 47 | 1016.1 |
| 20260901081800 | 61 | 45 | 1.0 | 1.0 | 0.00 | 0.00 | 0.00 | 47 | 1016.1 |
| 20260901081358 | 61 | 328 | 1.0 | 3.0 | 0.00 | 0.00 | 0.00 | 47 | 1016.1 |
| 20260901080957 | 61 | 40 | 0.0 | 1.0 | 0.00 | 0.00 | 0.00 | 47 | 1016.2 |
| 20260901080556 | 62 | 40 | 0.0 | 1.0 | 0.00 | 0.00 | 0.00 | 46 | 1016.2 |
| 20260901080154 | 62 | 139 | 1.0 | 1.0 | 0.00 | 0.00 | 0.00 | 46 | 1016.1 |
| 20260901075753 | 62 | 139 | 0.0 | 1.0 | 0.00 | 0.00 | 0.00 | 46 | 1016.1 |
| 20260901074951 | 62 | 139 | 1.0 | 1.0 | 0.00 | 0.00 | 0.00 | 46 | 1016.1 |
| 20260901074549 | 62 | 137 | 1.0 | 1.0 | 0.00 | 0.00 | 0.00 | 46 | 1016.2 |
| 20260901074148 | 62 | 184 | 0.0 | 1.0 | 0.00 | 0.00 | 0.00 | 46 | 1016.2 |
| 20260901073346 | 62 | 135 | 1.0 | 2.0 | 0.00 | 0.00 | 0.00 | 46 | 1016.2 |
| 20260901072944 | 63 | 139 | 1.0 | 2.0 | 0.00 | 0.00 | 0.00 | 46 | 1016.2 |
| 20260901072142 | 63 | 189 | 0.0 | 3.0 | 0.00 | 0.00 | 0.00 | 46 | 1016.2 |
| 20260901071338 | 63 | 157 | 2.0 | 3.0 | 0.00 | 0.00 | 0.00 | 46 | 1016.1 |
| 20260901070937 | 63 | 135 | 1.0 | 3.0 | 0.00 | 0.00 | 0.00 | 46 | 1016.1 |
| 20260901070536 | 63 | 137 | 2.0 | 3.0 | 0.00 | 0.00 | 0.00 | 45 | 1016.0 |
| 20260901070136 | 63 | 130 | 1.0 | 2.0 | 0.00 | 0.00 | 0.00 | 45 | 1016.0 |
| 20260901065333 | 63 | 236 | 0.0 | 0.0 | 0.00 | 0.00 | 0.00 | 45 | 1015.9 |
| 20260901064931 | 63 | 240 | 0.0 | 1.0 | 0.00 | 0.00 | 0.00 | 45 | 1015.9 |
| 20260901064530 | 63 | 139 | 0.0 | 1.0 | 0.00 | 0.00 | 0.00 | 45 | 1015.9 |
| 20260901063727 | 64 | 135 | 0.0 | 2.0 | 0.00 | 0.00 | 0.00 | 45 | 1015.7 |
| 20260901062919 | 64 | 139 | 2.0 | 2.0 | 0.00 | 0.00 | 0.00 | 45 | 1015.6 |
| 20260901062116 | 64 | 137 | 2.0 | 2.0 | 0.00 | 0.00 | 0.00 | 44 | 1015.7 |
| 20260901061314 | 64 | 135 | 1.0 | 1.0 | 0.00 | 0.00 | 0.00 | 44 | 1015.6 |
| 20260901055701 | 64 | 139 | 0.0 | 1.0 | 0.00 | 0.00 | 0.00 | 44 | 1015.5 |
| 20260901055300 | 65 | 33 | 0.0 | 1.0 | 0.00 | 0.00 | 0.00 | 43 | 1015.5 |
| 20260901054859 | 65 | 76 | 0.0 | 2.0 | 0.00 | 0.00 | 0.00 | 43 | 1015.5 |
| 20260901054458 | 65 | 137 | 1.0 | 2.0 | 0.00 | 0.00 | 0.00 | 43 | 1015.5 |
| 20260901053655 | 65 | 135 | 1.0 | 1.0 | 0.00 | 0.00 | 0.00 | 43 | 1015.4 |
| 20260901053254 | 65 | 135 | 1.0 | 2.0 | 0.00 | 0.00 | 0.00 | 43 | 1015.4 |
| 20260901052051 | 65 | 81 | 0.0 | 1.0 | 0.00 | 0.00 | 0.00 | 43 | 1015.4 |
| 20260901051652 | 65 | 137 | 1.0 | 2.0 | 0.00 | 0.00 | 0.00 | 42 | 1015.3 |
| 20260901051247 | 65 | 139 | 2.0 | 3.0 | 0.00 | 0.00 | 0.00 | 42 | 1015.4 |
| 20260901050846 | 66 | 137 | 2.0 | 2.0 | 0.00 | 0.00 | 0.00 | 42 | 1015.4 |
| 20260901050445 | 66 | 139 | 0.0 | 0.0 | 0.00 | 0.00 | 0.00 | 42 | 1015.3 |
| 20260901050044 | 66 | 137 | 0.0 | 1.0 | 0.00 | 0.00 | 0.00 | 42 | 1015.4 |
| 20260901045643 | 66 | 141 | 1.0 | 2.0 | 0.00 | 0.00 | 0.00 | 42 | 1015.4 |
| 20260901045241 | 66 | 74 | 0.0 | 0.0 | 0.00 | 0.00 | 0.00 | 42 | 1015.3 |
| 20260901044840 | 67 | 90 | 0.0 | 0.0 | 0.00 | 0.00 | 0.00 | 42 | 1015.3 |
| 20260901043636 | 67 | 279 | 1.0 | 1.0 | 0.00 | 0.00 | 0.00 | 41 | 1015.2 |
| 20260901043235 | 67 | 274 | 0.0 | 0.0 | 0.00 | 0.00 | 0.00 | 41 | 1015.1 |
| 20260901042833 | 67 | 274 | 0.0 | 0.0 | 0.00 | 0.00 | 0.00 | 41 | 1015.1 |
| 20260901042433 | 67 | 292 | 0.0 | 0.0 | 0.00 | 0.00 | 0.00 | 41 | 1015.0 |
| 20260901041630 | 67 | 184 | 0.0 | 0.0 | 0.00 | 0.00 | 0.00 | 40 | 1014.9 |
| 20260901041228 | 67 | 290 | 0.0 | 0.0 | 0.00 | 0.00 | 0.00 | 40 | 1014.9 |
| 20260901040827 | 68 | 270 | 0.0 | 1.0 | 0.00 | 0.00 | 0.00 | 39 | 1014.9 |
| 20260901040425 | 68 | 279 | 0.0 | 1.0 | 0.00 | 0.00 | 0.00 | 39 | 1014.8 |
| 20260901040024 | 68 | 288 | 1.0 | 1.0 | 0.00 | 0.00 | 0.00 | 39 | 1014.6 |
| 20260901035623 | 68 | 274 | 0.0 | 0.0 | 0.00 | 0.00 | 0.00 | 38 | 1014.6 |
| 20260901035223 | 68 | 299 | 0.0 | 1.0 | 0.00 | 0.00 | 0.00 | 38 | 1014.7 |
| 20260901034018 | 69 | 40 | 0.0 | 0.0 | 0.00 | 0.00 | 0.00 | 37 | 1014.5 |
| 20260901033618 | 70 | 83 | 0.0 | 0.0 | 0.00 | 0.00 | 0.00 | 37 | 1014.4 |
| 20260901033616 | 70 | 83 | 0.0 | 0.0 | 0.00 | 0.00 | 0.00 | 37 | 1014.4 |
| 20260901033215 | 70 | 81 | 0.0 | 1.0 | 0.00 | 0.00 | 0.00 | 37 | 1014.4 |
| 20260901032814 | 70 | 36 | 1.0 | 1.0 | 0.00 | 0.00 | 0.00 | 36 | 1014.3 |
| 20260901032413 | 70 | 191 | 1.0 | 1.0 | 0.00 | 0.00 | 0.00 | 36 | 1014.2 |
| 20260901032012 | 70 | 159 | 0.0 | 2.0 | 0.00 | 0.00 | 0.00 | 36 | 1014.2 |
| 20260901031610 | 70 | 137 | 1.0 | 3.0 | 0.00 | 0.00 | 0.00 | 35 | 1014.2 |
| 20260901030808 | 71 | 132 | 4.0 | 5.0 | 0.00 | 0.00 | 0.00 | 35 | 1014.2 |
| 20260901030406 | 71 | 135 | 3.0 | 6.0 | 0.00 | 0.00 | 0.00 | 34 | 1014.2 |
| 20260901025604 | 71 | 101 | 3.0 | 5.0 | 0.00 | 0.00 | 0.00 | 33 | 1014.0 |
| 20260901025203 | 72 | 92 | 4.0 | 4.0 | 0.00 | 0.00 | 0.00 | 33 | 1014.1 |
| 20260901024400 | 73 | 135 | 4.0 | 6.0 | 0.00 | 0.00 | 0.00 | 32 | 1013.9 |
| 20260901023958 | 73 | 135 | 4.0 | 5.0 | 0.00 | 0.00 | 0.00 | 31 | 1013.9 |
| 20260901023557 | 73 | 137 | 6.0 | 8.0 | 0.00 | 0.00 | 0.00 | 31 | 1013.9 |
| 20260901023156 | 74 | 135 | 5.0 | 6.0 | 0.00 | 0.00 | 0.00 | 30 | 1013.9 |
| 20260901022755 | 74 | 105 | 4.0 | 8.0 | 0.00 | 0.00 | 0.00 | 30 | 1013.9 |
| 20260901022353 | 75 | 128 | 5.0 | 8.0 | 0.00 | 0.00 | 0.00 | 29 | 1013.9 |
| 20260901021552 | 76 | 132 | 5.0 | 7.0 | 0.00 | 0.00 | 0.00 | 28 | 1013.9 |
| 20260901021150 | 76 | 150 | 3.0 | 7.0 | 0.00 | 0.00 | 0.00 | 28 | 1013.9 |
| 20260901020749 | 0 | 137 | 6.0 | 0.0 | 0.00 | 0.00 | 0.00 | ||
| 20260901015946 | 77 | 135 | 7.0 | 9.0 | 0.00 | 0.00 | 0.00 | 26 | 1013.8 |
| 20260901015545 | 77 | 135 | 7.0 | 9.0 | 0.00 | 0.00 | 0.00 | 26 | 1013.8 |
| 20260901015143 | 78 | 132 | 7.0 | 9.0 | 0.00 | 0.00 | 0.00 | 25 | 1013.8 |
| 20260901014742 | 79 | 130 | 7.0 | 9.0 | 0.00 | 0.00 | 0.00 | 25 | 1013.7 |
| 20260901014341 | 79 | 137 | 6.0 | 9.0 | 0.00 | 0.00 | 0.00 | 25 | 1013.7 |
| 20260901013939 | 79 | 135 | 6.0 | 10.0 | 0.00 | 0.00 | 0.00 | 24 | 1013.6 |
| 20260901013538 | 80 | 123 | 8.0 | 9.0 | 0.00 | 0.00 | 0.00 | 24 | 1013.7 |
| 20260901013136 | 80 | 135 | 8.0 | 11.0 | 0.00 | 0.00 | 0.00 | 23 | 1013.6 |
| 20260901012735 | 81 | 135 | 7.0 | 10.0 | 0.00 | 0.00 | 0.00 | 23 | 1013.6 |
| 20260901012334 | 81 | 135 | 8.0 | 11.0 | 0.00 | 0.00 | 0.00 | 23 | 1013.5 |
| 20260901011933 | 82 | 174 | 6.0 | 10.0 | 0.00 | 0.00 | 0.00 | 23 | 1013.5 |
| 20260901011535 | 83 | 159 | 4.0 | 11.0 | 0.00 | 0.00 | 0.00 | 23 | 1013.5 |
| 20260901011130 | 83 | 137 | 10.0 | 11.0 | 0.00 | 0.00 | 0.00 | 22 | 1013.6 |
| 20260901010729 | 84 | 135 | 9.0 | 11.0 | 0.00 | 0.00 | 0.00 | 22 | 1013.6 |
| 20260901010328 | 84 | 132 | 8.0 | 10.0 | 0.00 | 0.00 | 0.00 | 21 | 1013.6 |
| 20260901005927 | 85 | 135 | 9.0 | 9.0 | 0.00 | 0.00 | 0.00 | 22 | 1013.7 |
| 20260901005526 | 85 | 148 | 4.0 | 9.0 | 0.00 | 0.00 | 0.00 | 21 | 1013.7 |
| 20260901004722 | 86 | 139 | 4.0 | 7.0 | 0.00 | 0.00 | 0.00 | 22 | 1013.6 |
| 20260901004321 | 86 | 135 | 5.0 | 9.0 | 0.00 | 0.00 | 0.00 | 22 | 1013.6 |
| 20260901003920 | 87 | 137 | 9.0 | 9.0 | 0.00 | 0.00 | 0.00 | 21 | 1013.6 |
| 20260901003519 | 89 | 135 | 5.0 | 5.0 | 0.00 | 0.00 | 0.00 | 21 | 1013.5 |
| 20260901002314 | 90 | 182 | 8.0 | 9.0 | 0.00 | 0.00 | 0.00 | 21 | 1013.6 |
| 20260901001913 | 90 | 148 | 3.0 | 8.0 | 0.00 | 0.00 | 0.00 | 21 | 1013.7 |
| 20260901001512 | 91 | 177 | 6.0 | 9.0 | 0.00 | 0.00 | 0.00 | 21 | 1013.6 |
| 20260901001111 | 91 | 180 | 6.0 | 11.0 | 0.00 | 0.00 | 0.00 | 21 | 1013.6 |
| 20260901000710 | 91 | 177 | 9.0 | 11.0 | 0.00 | 0.00 | 0.00 | 21 | 1013.6 |
| 20260901000313 | 91 | 189 | 9.0 | 9.0 | 0.00 | 0.00 | 0.00 | 21 | 1013.6 |
| 20260831235907 | 92 | 135 | 7.0 | 7.0 | 0.00 | 0.00 | 0.00 | 21 | 1013.6 |
| 20260831234302 | 93 | 120 | 2.0 | 6.0 | 0.00 | 0.00 | 0.00 | 21 | 1013.6 |
| 20260831233901 | 92 | 121 | 3.0 | 9.0 | 0.00 | 0.00 | 0.00 | 21 | 1013.6 |
| 20260831233459 | 92 | 183 | 2.0 | 8.0 | 0.00 | 0.00 | 0.00 | 21 | 1013.6 |
| 20260831233058 | 91 | 127 | 3.0 | 11.0 | 0.00 | 0.00 | 0.00 | 21 | 1013.6 |
| 20260831232256 | 91 | 180 | 1.0 | 10.0 | 0.00 | 0.00 | 0.00 | 21 | 1013.6 |
| 20260831231854 | 91 | 135 | 3.0 | 7.0 | 0.00 | 0.00 | 0.00 | 21 | 1013.6 |
| 20260831231454 | 91 | 165 | 4.0 | 11.0 | 0.00 | 0.00 | 0.00 | 22 | 1013.7 |
| 20260831231052 | 91 | 135 | 10.0 | 12.0 | 0.00 | 0.00 | 0.00 | 21 | 1013.7 |
| 20260831230250 | 90 | 144 | 5.0 | 11.0 | 0.00 | 0.00 | 0.00 | 22 | 1013.9 |
| 20260831225848 | 90 | 139 | 9.0 | 11.0 | 0.00 | 0.00 | 0.00 | 22 | 1013.8 |
| 20260831225447 | 90 | 135 | 10.0 | 12.0 | 0.00 | 0.00 | 0.00 | 21 | 1013.8 |
| 20260831224644 | 90 | 130 | 9.0 | 12.0 | 0.00 | 0.00 | 0.00 | 22 | 1013.9 |
| 20260831224242 | 90 | 144 | 6.0 | 14.0 | 0.00 | 0.00 | 0.00 | 22 | 1014.1 |
| 20260831223841 | 92 | 141 | 10.0 | 12.0 | 0.00 | 0.00 | 0.00 | 22 | 1014.0 |
| 20260831223440 | 91 | 177 | 7.0 | 12.0 | 0.00 | 0.00 | 0.00 | 22 | 1013.9 |
| 20260831223039 | 92 | 180 | 7.0 | 12.0 | 0.00 | 0.00 | 0.00 | 22 | 1013.9 |
| 20260831222638 | 92 | 148 | 8.0 | 12.0 | 0.00 | 0.00 | 0.00 | 22 | 1014.1 |
| 20260831222236 | 92 | 144 | 9.0 | 10.0 | 0.00 | 0.00 | 0.00 | 22 | 1014.1 |
| 20260831221835 | 92 | 135 | 9.0 | 11.0 | 0.00 | 0.00 | 0.00 | 22 | 1014.1 |
| 20260831221434 | 92 | 144 | 7.0 | 13.0 | 0.00 | 0.00 | 0.00 | 22 | 1014.2 |
| 20260831221033 | 93 | 137 | 13.0 | 13.0 | 0.00 | 0.00 | 0.00 | 22 | 1014.2 |
| 20260831220633 | 93 | 189 | 6.0 | 12.0 | 0.00 | 0.00 | 0.00 | 22 | 1014.3 |
| 20260831220230 | 93 | 171 | 3.0 | 10.0 | 0.00 | 0.00 | 0.00 | 21 | 1014.3 |
| 20260831215828 | 94 | 195 | 9.0 | 9.0 | 0.00 | 0.00 | 0.00 | 22 | 1014.3 |
| 20260831215427 | 93 | 162 | 4.0 | 9.0 | 0.00 | 0.00 | 0.00 | 21 | 1014.3 |
| 20260831215026 | 93 | 157 | 3.0 | 8.0 | 0.00 | 0.00 | 0.00 | 22 | 1014.4 |
| 20260831214629 | 94 | 119 | 9.0 | 9.0 | 0.00 | 0.00 | 0.00 | 22 | 1014.4 |
| 20260831213822 | 93 | 155 | 3.0 | 11.0 | 0.00 | 0.00 | 0.00 | 22 | 1014.5 |
| 20260831212618 | 93 | 162 | 4.0 | 12.0 | 0.00 | 0.00 | 0.00 | 22 | 1014.6 |
| 20260831211816 | 94 | 127 | 6.0 | 11.0 | 0.00 | 0.00 | 0.00 | 22 | 1014.7 |
| 20260831211415 | 94 | 137 | 9.0 | 10.0 | 0.00 | 0.00 | 0.00 | 22 | 1014.7 |
| 20260831211013 | 94 | 148 | 4.0 | 11.0 | 0.00 | 0.00 | 0.00 | 22 | 1014.7 |
| 20260831210210 | 95 | 162 | 6.0 | 12.0 | 0.00 | 0.00 | 0.00 | 22 | 1014.8 |
| 20260831205809 | 95 | 186 | 7.0 | 11.0 | 0.00 | 0.00 | 0.00 | 23 | 1014.8 |
| 20260831205408 | 95 | 182 | 7.0 | 11.0 | 0.00 | 0.00 | 0.00 | 23 | 1014.8 |
| 20260831203803 | 95 | 173 | 6.0 | 11.0 | 0.00 | 0.00 | 0.00 | 23 | 1014.9 |
| 20260831203402 | 95 | 186 | 11.0 | 11.0 | 0.00 | 0.00 | 0.00 | 23 | 1014.9 |
| 20260831203000 | 95 | 190 | 6.0 | 13.0 | 0.00 | 0.00 | 0.00 | 23 | 1014.8 |
| 20260831202559 | 95 | 173 | 6.0 | 12.0 | 0.00 | 0.00 | 0.00 | 23 | 1014.9 |
| 20260831202157 | 96 | 163 | 3.0 | 9.0 | 0.00 | 0.00 | 0.00 | 23 | 1014.9 |
| 20260831200954 | 96 | 176 | 4.0 | 8.0 | 0.00 | 0.00 | 0.00 | 24 | 1014.9 |
| 20260831200553 | 95 | 164 | 7.0 | 9.0 | 0.00 | 0.00 | 0.00 | 24 | 1014.9 |
| 20260831200151 | 95 | 177 | 6.0 | 10.0 | 0.00 | 0.00 | 0.00 | 24 | 1014.9 |
| 20260831195749 | 95 | 192 | 8.0 | 9.0 | 0.00 | 0.00 | 0.00 | 24 | 1015.0 |
| 20260831195348 | 95 | 182 | 6.0 | 10.0 | 0.00 | 0.00 | 0.00 | 25 | 1015.0 |
| 20260831194948 | 95 | 166 | 5.0 | 10.0 | 0.00 | 0.00 | 0.00 | 25 | 1015.0 |
| 20260831194546 | 95 | 177 | 5.0 | 11.0 | 0.00 | 0.00 | 0.00 | 25 | 1015.1 |
| 20260831193342 | 92 | 117 | 9.0 | 10.0 | 0.00 | 0.00 | 0.00 | 26 | 1015.2 |
| 20260831192539 | 93 | 182 | 4.0 | 8.0 | 0.00 | 0.00 | 0.00 | 26 | 1015.4 |
| 20260831191737 | 93 | 132 | 8.0 | 9.0 | 0.00 | 0.00 | 0.00 | 27 | 1015.4 |
| 20260831191336 | 93 | 162 | 3.0 | 11.0 | 0.00 | 0.00 | 0.00 | 27 | 1015.4 |
| 20260831190934 | 94 | 182 | 3.0 | 7.0 | 0.00 | 0.00 | 0.00 | 27 | 1015.5 |
| 20260831190533 | 93 | 130 | 4.0 | 7.0 | 0.00 | 0.00 | 0.00 | 27 | 1015.4 |
| 20260831185330 | 91 | 135 | 4.0 | 6.0 | 0.00 | 0.00 | 0.00 | 28 | 1015.4 |
| 20260831184526 | 91 | 130 | 7.0 | 8.0 | 0.00 | 0.00 | 0.00 | 28 | 1015.4 |
| 20260831184125 | 91 | 144 | 4.0 | 7.0 | 0.00 | 0.00 | 0.00 | 28 | 1015.5 |
| 20260831183724 | 91 | 227 | 5.0 | 6.0 | 0.00 | 0.00 | 0.00 | 28 | 1015.5 |
| 20260831183323 | 90 | 196 | 1.0 | 6.0 | 0.00 | 0.00 | 0.00 | 28 | 1015.6 |
| 20260831182922 | 89 | 170 | 3.0 | 7.0 | 0.00 | 0.00 | 0.00 | 28 | 1015.6 |
| 20260831182521 | 87 | 208 | 0.0 | 9.0 | 0.00 | 0.00 | 0.00 | 29 | 1015.6 |
| 20260831181723 | 88 | 144 | 8.0 | 8.0 | 0.00 | 0.00 | 0.00 | 29 | 1015.7 |
| 20260831181316 | 87 | 135 | 9.0 | 10.0 | 0.00 | 0.00 | 0.00 | 29 | 1015.6 |
| 20260831180915 | 89 | 123 | 9.0 | 10.0 | 0.00 | 0.00 | 0.00 | 29 | 1015.6 |
| 20260831180514 | 89 | 186 | 4.0 | 8.0 | 0.00 | 0.00 | 0.00 | 29 | 1015.7 |
| 20260831180114 | 87 | 180 | 7.0 | 9.0 | 0.00 | 0.00 | 0.00 | 29 | 1015.7 |
| 20260831175713 | 86 | 50 | 4.0 | 11.0 | 0.00 | 0.00 | 0.00 | 30 | 1015.7 |
| 20260831175310 | 88 | 135 | 9.0 | 9.0 | 0.00 | 0.00 | 0.00 | 30 | 1015.7 |
| 20260831174909 | 88 | 175 | 4.0 | 7.0 | 0.00 | 0.00 | 0.00 | 30 | 1015.7 |
| 20260831174508 | 88 | 67 | 1.0 | 9.0 | 0.00 | 0.00 | 0.00 | 30 | 1015.7 |
| 20260831174107 | 86 | 135 | 5.0 | 7.0 | 0.00 | 0.00 | 0.00 | 30 | 1015.7 |
| 20260831173708 | 86 | 105 | 3.0 | 7.0 | 0.00 | 0.00 | 0.00 | 31 | 1015.7 |
| 20260831173706 | 86 | 105 | 3.0 | 7.0 | 0.00 | 0.00 | 0.00 | 31 | 1015.7 |
| 20260831173303 | 88 | 117 | 7.0 | 7.0 | 0.00 | 0.00 | 0.00 | 31 | 1015.7 |
| 20260831172903 | 87 | 195 | 1.0 | 6.0 | 0.00 | 0.00 | 0.00 | 31 | 1015.8 |
| 20260831172501 | 86 | 126 | 6.0 | 9.0 | 0.00 | 0.00 | 0.00 | 32 | 1015.6 |
| 20260831172100 | 87 | 185 | 5.0 | 5.0 | 0.00 | 0.00 | 0.00 | 33 | 1015.7 |
| 20260831171659 | 86 | 137 | 4.0 | 7.0 | 0.00 | 0.00 | 0.00 | 33 | 1015.7 |
| 20260831171257 | 85 | 191 | 1.0 | 6.0 | 0.00 | 0.00 | 0.00 | 33 | 1015.6 |
| 20260831170855 | 84 | 117 | 6.0 | 7.0 | 0.00 | 0.00 | 0.00 | 33 | 1015.7 |
| 20260831170454 | 84 | 119 | 6.0 | 7.0 | 0.00 | 0.00 | 0.00 | 34 | 1015.7 |
| 20260831170054 | 85 | 148 | 5.0 | 9.0 | 0.00 | 0.00 | 0.00 | 34 | 1015.7 |
| 20260831165251 | 84 | 56 | 0.0 | 7.0 | 0.00 | 0.00 | 0.00 | 35 | 1015.6 |
| 20260831164850 | 83 | 135 | 7.0 | 7.0 | 0.00 | 0.00 | 0.00 | 36 | 1015.5 |
| 20260831164448 | 83 | 135 | 7.0 | 7.0 | 0.00 | 0.00 | 0.00 | 36 | 1015.5 |
| 20260831164048 | 84 | 101 | 2.0 | 4.0 | 0.00 | 0.00 | 0.00 | 37 | 1015.5 |
| 20260831163646 | 82 | 301 | 1.0 | 7.0 | 0.00 | 0.00 | 0.00 | 37 | 1015.5 |